Погода в Тополином

Россия / Республика Саха (Якутия)     64°04′23″N   135°57′46″E
темп.,
°C
ветер,
м/с
пор.,
м/с
влажн.,
%
обл.,
%
осадки,
мм/ч
давл.,
гПа
погр.,
м
27 февраля, сб
сб2700:00−35с009773 0.0 103319
03:00−35св119778 0.0 103219
06:00−36с119686 0.0 103219
09:00−33с119161 0.0 103122
12:00−30с118418 0.0 1029203
15:00−28ссв11879 0.0 1027151
18:00−33ссв22910 0.0 102719
21:00−33с22860 0.0 102519
28 февраля, вс
вс2800:00−33с33840 0.0 102319
03:00−34с23860 0.0 102119
06:00−35с23872 0.0 102119
09:00−32с22882 0.0 102052
12:00−28с23825 0.0 1020264
15:00−27с22845 0.0 1020198
18:00−33с12910 0.0 102219
21:00−34с119123 0.0 102319
1 марта, пн
пн100:00−35с119251 0.0 102219
03:00−33с009075 0.0 102319
06:00−31всв0196100 0.0 102319
09:00−29ююв0196100 0.1 1023101
12:00−26ю2386100 0.0 1023440
15:00−26ююв3488100 0.1 1022385
18:00−30ююв2395100 0.0 102429
21:00−33ююв229798 0.1 102419
2 марта, вт
вт200:00−36юв1110092 0.0 102419
03:00−37св0010088 0.0 102419
06:00−39ссв1110086 0.0 102519
09:00−35с019687 0.0 102428
12:00−31сз118698 0.0 1023212
15:00−29юз118699 0.0 1023247
18:00−30ююз1196100 0.0 102419
21:00−31ююз1197100 0.1 102420
3 марта, ср
ср300:00−31ю1199100 0.1 102419
03:00−31ю1199100 0.3 102419
06:00−31ююз0198100 0.1 102319
09:00−30сз0095100 0.1 1022125
12:00−28ссз1287100 0.1 1020413
15:00−27ссз1287100 0.1 1018441
18:00−29с1299100 0.1 101719
21:00−30ссз2298100 0.2 101620